Location: *
(48.4117°S, 178.1862°E)
Time: 08:16:20
(UTC+00:00)

Daily predictions for brighter satellites

Satellite Brightness Start Highest point End
(mag) Time Altitude Azimuth Time Altitude Azimuth Time Altitude Azimuth
NOSS 3-4 (A) 4.1 12:16:02 76° WSW 12:16:22 77° SW 12:24:22 10° SE
NOSS 3-4 (C) 4.1 12:16:10 77° WSW 12:16:28 78° SW 12:24:28 10° SE
Cosmos 1943 Rocket 3.5 12:11:24 10° SSW 12:14:37 35° SSW 12:14:37 35° SSW
ADEOS II 3.8 12:19:14 28° SE 12:19:14 28° SE 12:22:55 10° S
ATLAS 3B R/B 4.5 12:19:10 10° SW 12:24:17 24° SSE 12:29:18 10° ESE
USA 234 3.5 12:31:54 67° S 12:31:54 67° S 12:37:51 10° SW
SeaSat 1 4.0 12:35:10 32° SSE 12:35:10 32° SSE 12:38:26 10° SSW
COSMOS 2428 4.2 12:46:06 29° SW 12:46:06 29° SW 12:50:59 10° SSE
Lacrosse 4 Rocket 4.3 12:51:24 14° SSW 12:51:24 14° SSW 12:53:14 10° S
Cosmos 2237 Rocket 3.3 12:54:48 42° SSW 12:54:48 42° SSW 12:59:00 10° SSE
IDEFIX/ARIANE 42P 4.0 13:06:38 34° SSW 13:06:38 34° SSW 13:09:34 10° SSW
Resurs 1-4 Rocket 3.3 13:07:53 37° SSW 13:07:53 37° SSW 13:11:06 10° SSW
SL-16 R/B 3.1 13:14:09 47° SE 13:14:09 47° SE 13:18:11 10° SSE
ATLAS 2AS CENTAUR R/B 3.8 13:16:52 32° E 13:16:52 32° E 13:21:55 10° SE
Cosmos 2369 Rocket 3.2 13:14:20 10° SSW 13:18:07 43° SSW 13:18:07 43° SSW
CZ-2C R/B 4.1 13:23:01 41° SSE 13:23:01 41° SSE 13:26:35 10° S
CZ-2D R/B 3.5 13:31:45 31° SW 13:31:45 31° SW 13:34:43 10° SSW
Cosmos 1943 4.3 13:35:19 36° E 13:35:19 36° E 13:39:28 10° SE
Cosmos 2341 Rocket 4.2 13:36:05 71° SSE 13:36:05 71° SSE 13:41:44 10° S
USA 267 3.2 13:31:32 10° SE 13:38:09 78° SSW 13:38:12 78° SW
ALOS 3.6 13:51:20 37° S 13:51:20 37° S 13:54:12 10° S
ADEOS II 3.5 14:00:08 29° SW 14:00:08 29° SW 14:02:58 10° SSW
Lacrosse 5 3.2 14:05:38 32° E 14:05:38 32° E 14:08:52 10° ESE
SL-8 Rocket 4.3 14:13:03 55° WSW 14:13:03 55° WSW 14:18:47 10° S
Cosmos 2366 rocket 4.1 14:15:15 62° WSW 14:15:15 62° WSW 14:21:26 10° S
ATLAS 3B R/B 2.9 14:09:57 10° SW 14:16:13 61° SE 14:22:25 10° NE
H-2A R/B 4.5 14:16:26 10° ENE 14:19:51 19° ESE 14:23:20 10° SSE
Cosmos 1375 Rocket 4.4 14:20:49 81° NNE 14:21:05 83° ENE 14:27:32 10° SE
ATLAS 5 CENTAUR R/B 3.3 14:21:34 10° SW 14:27:32 42° SE 14:32:24 10° ENE
IRS-1D 3.6 14:28:48 70° E 14:28:56 70° ESE 14:34:06 10° S
Meteor 2-13 Rocket 4.4 14:24:35 10° S 14:30:47 82° E 14:31:45 65° NNE
CZ-2C R/B 4.4 14:27:12 10° SE 14:31:31 25° E 14:33:59 18° NE
Thor Agena Rocket 3.6 14:33:36 70° SSW 14:33:36 70° SSW 14:38:09 10° SSW
CZ-2C R/B 2.5 14:33:16 75° E 14:33:27 77° ESE 14:38:43 10° SSW
ATLAS CENTAUR R/B 3.4 14:31:47 57° WNW 14:33:29 80° SSW 14:45:07 10° SE
NOSS 3-1 (C) 3.7 14:28:46 10° SW 14:33:51 50° WSW 14:33:51 50° WSW
Cosmos 2237 Rocket 4.5 14:36:35 12° WSW 14:38:53 14° SSW 14:41:54 10° S
Envisat 3.0 14:40:58 76° SW 14:40:58 76° SW 14:45:48 10° SSW
Cosmos 1140 Rocket 4.3 14:44:19 39° NE 14:45:20 44° ENE 14:50:19 10° SE
BlueWalker 3 3.0 14:47:48 44° SE 14:47:48 44° SE 14:50:38 10° ESE
Cosmos 1821 Rocket 4.0 14:46:30 61° WNW 14:47:01 63° WSW 14:53:15 10° S
Cosmos 1025 Rocket 4.1 14:48:29 37° SSW 14:48:29 37° SSW 14:51:35 10° S
Cosmos 1455 Rocket 4.5 14:46:36 10° SSW 14:48:59 29° SW 14:48:59 29° SW
Cosmos 1603 3.6 14:51:09 71° NW 14:51:46 82° WSW 14:57:38 10° SSE
Cosmos 405 Rocket 4.5 14:48:15 10° SSW 14:49:53 25° SSW 14:49:53 25° SSW
Cosmos 220 Rocket 4.3 14:53:18 62° E 14:53:18 62° E 14:57:30 10° SSE
METEOR-M 4.3 14:56:18 53° WSW 14:56:18 53° WSW 15:01:05 10° SSW
PAYLOAD A 3.8 14:55:53 77° WNW 14:56:01 78° WNW 15:01:05 10° SSW
Cosmos 2228 3.8 14:52:39 10° S 14:56:51 49° ESE 14:58:03 38° ENE
SL-16 R/B 3.7 14:56:01 22° WSW 14:57:13 23° SW 15:01:47 10° S
MOZ.5/SAFIR/RUBIN 5/SL-8 3.8 14:54:58 10° S 14:59:43 69° WSW 14:59:43 69° WSW
Cosmos 1825 4.2 15:03:24 19° SSW 15:03:24 19° SSW 15:04:44 10° S
Cosmos 2239 Rocket 4.5 15:00:26 55° NW 15:01:42 69° WSW 15:08:03 10° S
Cosmos 1934 Rocket 3.9 15:01:04 44° N 15:03:10 82° E 15:09:27 10° S
Cosmos 2369 Rocket 4.4 14:59:31 10° WSW 14:59:50 11° WSW 14:59:50 11° WSW
YAOGAN 6 4.5 15:08:17 20° SSW 15:08:17 20° SSW 15:09:29 10° SSW
ATLAS 2AS CENTAUR R/B 2.8 15:04:17 45° WNW 15:06:19 64° SW 15:13:22 10° SE
Cosmos 1269 Rocket 4.2 15:07:35 51° W 15:08:03 53° WSW 15:13:17 10° SSE
Cosmos 2285 Rocket 4.4 15:13:54 42° WNW 15:15:27 51° WSW 15:21:45 10° SSE
Cosmos 1943 3.9 15:17:07 36° W 15:18:14 39° SW 15:23:34 10° SSE
Cosmos 1023 Rocket 4.4 15:18:00 51° NNW 15:19:24 86° ENE 15:24:43 10° SSE
USA 267 4.1 15:14:30 10° ESE 15:20:44 46° S 15:25:31 17° WSW
Cosmos 1697 Rocket 4.4 15:15:40 10° SSW 15:20:48 34° SE 15:25:53 10° ENE
Meteor 2-1 Rocket 4.3 15:16:52 10° SSW 15:22:36 59° W 15:24:23 42° NNW
SL-16 R/B 3.3 15:17:22 10° SSE 15:23:31 49° E 15:29:04 12° N
Cosmos 1975 Rocket 4.0 15:27:02 33° WSW 15:27:02 33° WSW 15:30:46 10° S
Meteor 1-28 Rocket 3.6 15:23:31 10° SSE 15:27:12 57° E 15:27:57 46° NNE
Cosmos 1869 3.2 15:27:25 10° SSW 15:31:27 68° W 15:31:36 67° WNW
USA 229 DEB 3.8 15:28:13 10° SW 15:35:03 71° SE 15:41:14 10° NE
Cosmos 1606 2.4 15:31:29 10° SSW 15:35:10 76° W 15:35:15 75° WNW
USA 229 3.8 15:28:21 10° SW 15:35:11 71° SE 15:41:21 10° NE
NOSS 3-1 (A) 3.3 15:29:11 10° SW 15:35:30 53° WNW 15:40:38 10° NNE
Meteor 1-11 4.3 15:36:35 38° NW 15:38:39 61° WSW 15:44:22 10° S
Cosmos 1656 3.6 15:35:55 10° SSW 15:41:34 89° WNW 15:47:15 10° NNE
Cosmos 1544 Rocket 4.2 15:39:47 10° SSW 15:43:36 36° W 15:43:36 36° W
Lacrosse 5 2.2 15:44:50 33° W 15:46:58 57° SSW 15:52:03 10° SE
Cosmos 1726 Rocket 4.3 15:45:35 10° S 15:49:56 55° ESE 15:54:15 10° NNE
Cosmos 1536 Rocket 3.5 15:48:30 38° NNW 15:50:03 66° W 15:54:31 10° S
Meteor 1-27 4.2 15:45:56 10° SSW 15:51:44 82° W 15:57:34 10° N
Cosmos 2251 Rocket 3.5 15:49:13 31° NNW 15:51:51 79° WSW 15:57:15 10° SSE
SL-4 R/B 2.0 15:54:17 43° NNW 15:54:17 43° NNW 15:57:22 10° NE
IRS-1C 4.2 15:49:27 10° NNE 15:54:50 81° ESE 16:00:16 10° SSW
Cosmos 468 Rocket 4.3 15:52:36 10° SSW 15:57:59 71° ESE 16:03:15 10° NNE
H-2A R/B 1.8 15:53:44 10° N 15:58:41 72° WNW 16:03:46 10° SSW
ARIANE 5 R/B 2.7 15:53:29 10° NNE 15:58:43 80° ESE 16:04:03 10° SSW
Cosmos 540 Rocket 3.6 15:56:01 10° SSW 16:01:17 77° ESE 16:06:29 10° NNE
H-2A R/B 2.3 16:00:59 12° N 16:04:13 78° WNW 16:07:46 10° SSW
Gbstr 26 Del rocket 4.1 16:01:56 24° NW 16:06:03 62° NNE 16:11:32 10° ESE
ATLAS 3B R/B 3.0 16:01:02 10° SW 16:06:30 33° WNW 16:12:00 10° N
ARGOS 3.5 16:05:13 10° NNE 16:10:37 72° ESE 16:16:05 10° S
ATLAS 5 CENTAUR R/B 2.1 16:06:12 10° SW 16:11:48 48° WNW 16:16:19 10° NNE
CZ-2C R/B 2.8 16:06:57 10° S 16:12:03 52° WSW 16:15:28 21° NW
CZ-2C R/B 4.1 16:12:35 17° W 16:12:35 17° W 16:15:31 10° SW
Cosmos 1484 Rocket 3.3 16:11:23 30° NW 16:12:14 34° W 16:15:42 10° SSW
Cosmos 1892 Rocket 4.0 16:09:23 10° N 16:13:44 64° E 16:18:08 10° SSE
Cosmos 676 Rocket 4.4 16:13:14 10° N 16:18:32 66° ENE 16:23:54 10° SSE
IRS-P3 4.1 16:16:09 10° N 16:21:31 77° WNW 16:26:57 10° SSW
Cosmos 407 Rocket 4.0 16:18:57 21° NW 16:22:11 46° WSW 16:27:18 10° SSE
BlueWalker 3 3.1 16:22:16 14° WSW 16:25:24 40° S 16:29:08 10° ESE
Cosmos 1140 Rocket 4.5 16:24:18 19° WNW 16:27:13 32° SW 16:31:57 10° S
Cosmos 1606 Rocket 3.8 16:22:58 10° SSW 16:27:14 47° W 16:31:28 10° NNW
DNEPR-1 R/B 4.3 16:26:11 20° W 16:28:32 36° SW 16:32:30 10° SSE
Cosmos 2100 Rocket 4.2 16:22:45 10° N 16:29:11 85° E 16:35:39 10° S
Alouette 2 Rocket 4.4 16:25:30 10° NNW 16:32:16 52° WSW 16:36:50 10° S
Cosmos 2058 Rocket 3.2 16:28:52 10° S 16:33:25 83° E 16:37:56 10° N
Cosmos 2228 4.5 16:30:55 10° SW 16:33:46 18° W 16:34:36 17° W
Cosmos 1939 Rocket 3.3 16:31:01 10° NNW 16:34:37 36° W 16:38:13 10° SSW
Cosmos 1980 Rocket 3.1 16:29:04 10° SSW 16:34:43 55° ESE 16:40:17 10° NE
Cosmos 841 Rocket 3.7 16:36:37 10° SSW 16:41:57 81° ESE 16:47:16 10° NNE
Cosmos 44 4.3 16:39:16 10° SSW 16:43:38 46° SE 16:48:14 10° ENE
SL-24 R/B - RUBIN 2 4.2 16:40:01 10° NNW 16:45:00 62° NE 16:49:31 10° SE
FengYun 1-2 T 4.3 16:39:32 10° N 16:45:06 58° WNW 16:50:42 10° SSW
Cosmos 1190 Rocket 4.4 16:40:43 12° NW 16:45:31 51° WSW 16:50:47 10° SSE
Cosmos 1763 Rocket 4.1 16:40:53 10° SW 16:45:43 35° WNW 16:50:28 10° NNW
Cosmos 1812 3.0 16:43:13 10° S 16:46:57 68° E 16:50:36 10° NNE
Cosmos 2058 3.3 16:43:21 10° N 16:47:26 66° E 16:51:34 10° SSE
Cosmos-2242 4.2 16:45:58 10° S 16:50:09 48° ESE 16:54:19 10° NNE
Spot 4 Rocket 4.1 16:47:51 10° NNE 16:53:02 85° WNW 16:58:18 10° SSW
SMAP 4.5 16:49:47 10° NE 16:54:14 44° ESE 16:58:45 10° S
Cosmos 1437 Rocket 4.4 16:50:58 10° NNE 16:54:31 37° E 16:58:11 10° SSE
Cosmos 1802 Rocket 4.1 16:49:22 10° N 16:55:37 87° W 17:02:02 10° S
Cosmos 1833 Rocket 2.7 16:50:46 10° NW 16:56:23 69° WSW 17:02:06 10° SSE
SL-08 RB Rocket 3.8 16:52:01 10° N 16:56:39 63° W 17:01:22 10° SSW
ATLAS 2AS CENTAUR R/B 4.1 16:52:49 10° WSW 16:58:37 28° SSW 17:04:41 10° SE
CZ-2D R/B 3.7 16:54:57 10° N 16:58:44 42° W 17:02:38 10° SSW
PSLV R/B 3.5 16:54:52 10° NNE 16:59:11 85° WNW 17:03:32 10° SSW
Cosmos 2369 4.2 16:53:51 10° SSW 16:59:38 67° ESE 17:05:22 10° NE
CZ-2D R/B 3.2 16:57:17 10° NNE 17:00:58 87° ESE 17:04:44 10° SSW
USA 267 4.2 16:56:48 10° E 17:03:01 45° S 17:09:15 10° WSW
Cosmos 1697 Rocket 2.9 16:59:31 10° SW 17:04:58 49° WNW 17:10:22 10° N
SL-16 R/B 3.3 17:01:14 10° S 17:06:55 36° WSW 17:12:33 10° NW
Cosmos 2173 Rocket 4.3 17:03:22 10° NNW 17:09:38 55° WSW 17:15:59 10° S
